ACI001 MPTO-SKCL

Flight info

Callsign ACI001
Flight time 1h 7m
Altitude 35000
Route MPTO SID DCT STAR ILS SKCL
Aircraft B738/M-S/C

Departure

Time 2026-04-22 21:57
Airport Tocumen International Airport (MPTO)

Arrival

Time 2026-04-22 23:05
Airport Alfonso Bonilla Aragon International Airport (SKCL)
Time Latitude Longitude Altitude Speed Heading
2026-04-22 21:42 9.08543 -79.37566 28 ft 0 kts 121°
2026-04-22 21:50 9.08545 -79.37569 28 ft 2 kts 121°
2026-04-22 21:50 9.08554 -79.37583 30 ft 2 kts 121°
2026-04-22 21:50 9.08562 -79.37598 28 ft 2 kts 121°
2026-04-22 21:51 9.08564 -79.37600 28 ft 2 kts 121°
2026-04-22 21:51 9.08571 -79.37612 27 ft 2 kts 121°
2026-04-22 21:52 9.08571 -79.37637 28 ft 2 kts 32°
2026-04-22 21:52 9.08570 -79.37638 28 ft 0 kts 28°
2026-04-22 21:54 9.08571 -79.37637 30 ft 0 kts 27°
2026-04-22 21:55 9.08591 -79.37627 28 ft 8 kts 27°
2026-04-22 21:55 9.08679 -79.37582 29 ft 19 kts 26°
2026-04-22 21:55 9.08810 -79.37505 30 ft 23 kts 33°
2026-04-22 21:55 9.08946 -79.37434 30 ft 22 kts 18°
2026-04-22 21:56 9.09088 -79.37391 31 ft 21 kts 16°
2026-04-22 21:56 9.09225 -79.37353 31 ft 20 kts 360°
2026-04-22 21:56 9.09321 -79.37422 39 ft 13 kts 305°
2026-04-22 21:56 9.09310 -79.37495 43 ft 15 kts 225°
2026-04-22 21:57 9.08969 -79.37712 46 ft 102 kts 209°
2026-04-22 21:57 9.08129 -79.38221 112 ft 172 kts 212°
2026-04-22 21:57 9.06992 -79.38824 774 ft 193 kts 207°
2026-04-22 21:57 9.05699 -79.39416 1521 ft 215 kts 200°
2026-04-22 21:58 9.04195 -79.39455 2206 ft 221 kts 156°
2026-04-22 21:58 9.03080 -79.38480 2931 ft 213 kts 112°
2026-04-22 21:58 9.02875 -79.37058 3669 ft 203 kts 82°
2026-04-22 21:58 9.02992 -79.35626 4371 ft 206 kts 84°
2026-04-22 21:59 9.03072 -79.34199 5096 ft 205 kts 85°
2026-04-22 21:59 9.03106 -79.32743 5806 ft 207 kts 86°
2026-04-22 21:59 9.03068 -79.31268 6498 ft 212 kts 92°
2026-04-22 21:59 9.02876 -79.29774 7203 ft 216 kts 99°
2026-04-22 22:00 9.02533 -79.28285 7927 ft 219 kts 105°
2026-04-22 22:00 9.02052 -79.26764 8362 ft 241 kts 109°
2026-04-22 22:00 9.01398 -79.25090 8597 ft 270 kts 112°
2026-04-22 22:00 9.00594 -79.23323 9073 ft 287 kts 115°
2026-04-22 22:01 8.99671 -79.21499 9836 ft 294 kts 117°
2026-04-22 22:01 8.98673 -79.19661 10473 ft 305 kts 119°
2026-04-22 22:01 8.97570 -79.17721 10658 ft 330 kts 120°
2026-04-22 22:01 8.96362 -79.15662 11058 ft 344 kts 121°
2026-04-22 22:02 8.95143 -79.13623 12158 ft 334 kts 121°
2026-04-22 22:02 8.93959 -79.11661 13439 ft 318 kts 122°
2026-04-22 22:02 8.92819 -79.09786 14565 ft 307 kts 122°
2026-04-22 22:02 8.91693 -79.07939 15243 ft 313 kts 122°
2026-04-22 22:03 8.90529 -79.06030 15498 ft 333 kts 122°
2026-04-22 22:03 8.89277 -79.03977 15715 ft 351 kts 122°
2026-04-22 22:03 8.87989 -79.01856 16305 ft 355 kts 122°
2026-04-22 22:03 8.86704 -78.99764 17419 ft 342 kts 125°
2026-04-22 22:04 8.85119 -78.97983 18241 ft 342 kts 140°
2026-04-22 22:04 8.83107 -78.96670 18748 ft 348 kts 155°
2026-04-22 22:04 8.80860 -78.95730 19347 ft 350 kts 158°
2026-04-22 22:04 8.78590 -78.94838 19992 ft 350 kts 158°
2026-04-22 22:05 8.76294 -78.93947 20494 ft 356 kts 158°
2026-04-22 22:05 8.73972 -78.93045 21058 ft 359 kts 158°
2026-04-22 22:05 8.71640 -78.92133 21707 ft 359 kts 158°
2026-04-22 22:05 8.69306 -78.91216 22261 ft 362 kts 158°
2026-04-22 22:06 8.66941 -78.90281 22790 ft 366 kts 158°
2026-04-22 22:06 8.64557 -78.89337 23354 ft 369 kts 158°
2026-04-22 22:06 8.62159 -78.88385 23820 ft 371 kts 158°
2026-04-22 22:06 8.59743 -78.87424 24257 ft 374 kts 158°
2026-04-22 22:07 8.57311 -78.86457 24705 ft 377 kts 158°
2026-04-22 22:07 8.54862 -78.85483 25131 ft 380 kts 158°
2026-04-22 22:07 8.52417 -78.84510 25528 ft 384 kts 158°
2026-04-22 22:07 8.49912 -78.83513 25956 ft 387 kts 158°
2026-04-22 22:08 8.47394 -78.82512 26388 ft 390 kts 159°
2026-04-22 22:08 8.44864 -78.81505 26810 ft 392 kts 159°
2026-04-22 22:08 8.42313 -78.80491 27223 ft 395 kts 159°
2026-04-22 22:08 8.39739 -78.79467 27617 ft 398 kts 159°
2026-04-22 22:09 8.37155 -78.78440 28034 ft 400 kts 159°
2026-04-22 22:09 8.34554 -78.77406 28380 ft 402 kts 159°
2026-04-22 22:09 8.31941 -78.76367 28704 ft 405 kts 159°
2026-04-22 22:09 8.29304 -78.75320 29031 ft 407 kts 159°
2026-04-22 22:10 8.26658 -78.74268 29338 ft 410 kts 159°
2026-04-22 22:10 8.24028 -78.73223 29659 ft 412 kts 159°
2026-04-22 22:10 8.21354 -78.72161 29970 ft 414 kts 159°
2026-04-22 22:10 8.18663 -78.71092 30234 ft 416 kts 159°
2026-04-22 22:11 8.15969 -78.70022 30587 ft 416 kts 159°
2026-04-22 22:11 8.13269 -78.68950 30897 ft 416 kts 159°
2026-04-22 22:11 8.10568 -78.67877 31178 ft 418 kts 159°
2026-04-22 22:11 8.07858 -78.66801 31451 ft 419 kts 159°
2026-04-22 22:12 8.05138 -78.65721 31725 ft 420 kts 159°
2026-04-22 22:12 8.02410 -78.64639 32002 ft 421 kts 159°
2026-04-22 22:12 7.99685 -78.63557 32281 ft 422 kts 159°
2026-04-22 22:12 7.96946 -78.62471 32550 ft 423 kts 159°
2026-04-22 22:13 7.94204 -78.61383 32810 ft 424 kts 159°
2026-04-22 22:13 7.91451 -78.60291 33066 ft 425 kts 159°
2026-04-22 22:13 7.88731 -78.59213 33313 ft 426 kts 159°
2026-04-22 22:13 7.85968 -78.58117 33568 ft 427 kts 159°
2026-04-22 22:14 7.83201 -78.57020 33815 ft 428 kts 159°
2026-04-22 22:14 7.80425 -78.55919 34033 ft 429 kts 158°
2026-04-22 22:14 7.77645 -78.54818 34237 ft 430 kts 158°
2026-04-22 22:14 7.74853 -78.53711 34438 ft 431 kts 158°
2026-04-22 22:15 7.72057 -78.52603 34640 ft 432 kts 158°
2026-04-22 22:15 7.69257 -78.51494 34837 ft 433 kts 158°
2026-04-22 22:15 7.66432 -78.50375 34866 ft 438 kts 158°
2026-04-22 22:16 7.60739 -78.48120 34875 ft 438 kts 158°
2026-04-22 22:16 7.55127 -78.45898 34868 ft 434 kts 158°
2026-04-22 22:17 7.49524 -78.43681 34875 ft 432 kts 158°
2026-04-22 22:17 7.43934 -78.41468 34881 ft 430 kts 158°
2026-04-22 22:18 7.38357 -78.39262 34875 ft 431 kts 158°
2026-04-22 22:18 7.32769 -78.37052 34880 ft 432 kts 158°
2026-04-22 22:19 7.27153 -78.34831 34883 ft 434 kts 158°
2026-04-22 22:19 7.21552 -78.32618 34880 ft 436 kts 158°
2026-04-22 22:20 7.15898 -78.30383 34876 ft 437 kts 158°
2026-04-22 22:20 7.10219 -78.28140 34875 ft 439 kts 158°
2026-04-22 22:21 7.04530 -78.25893 34875 ft 440 kts 158°
2026-04-22 22:21 6.98828 -78.23641 34874 ft 440 kts 158°
2026-04-22 22:22 6.93128 -78.21391 34876 ft 440 kts 158°
2026-04-22 22:22 6.87434 -78.19144 34875 ft 439 kts 158°
2026-04-22 22:23 6.81740 -78.16898 34875 ft 438 kts 158°
2026-04-22 22:23 6.76098 -78.14672 34876 ft 437 kts 158°
2026-04-22 22:24 6.70442 -78.12442 34876 ft 436 kts 158°
2026-04-22 22:24 6.64793 -78.10215 34877 ft 435 kts 158°
2026-04-22 22:25 6.59154 -78.07992 34876 ft 435 kts 158°
2026-04-22 22:25 6.53518 -78.05771 34877 ft 434 kts 158°
2026-04-22 22:26 6.47888 -78.03553 34877 ft 434 kts 158°
2026-04-22 22:26 6.42264 -78.01338 34877 ft 434 kts 158°
2026-04-22 22:27 6.36633 -77.99121 34878 ft 434 kts 158°
2026-04-22 22:27 6.31039 -77.96918 34872 ft 435 kts 158°
2026-04-22 22:28 6.25391 -77.94695 34888 ft 436 kts 158°
2026-04-22 22:28 6.19737 -77.92470 34881 ft 436 kts 158°
2026-04-22 22:29 6.14071 -77.90241 34880 ft 437 kts 158°
2026-04-22 22:29 6.08399 -77.88011 34881 ft 438 kts 158°
2026-04-22 22:30 6.03683 -77.86156 34881 ft 438 kts 158°
2026-04-22 22:30 5.98008 -77.83925 34883 ft 438 kts 158°
2026-04-22 22:31 5.92332 -77.81694 34885 ft 438 kts 158°
2026-04-22 22:31 5.86656 -77.79463 34882 ft 438 kts 158°
2026-04-22 22:32 5.80977 -77.77232 34882 ft 437 kts 158°
2026-04-22 22:32 5.75336 -77.75016 34882 ft 437 kts 158°
2026-04-22 22:33 5.69662 -77.72788 34884 ft 437 kts 158°
2026-04-22 22:33 5.64007 -77.70568 34884 ft 436 kts 158°
2026-04-22 22:34 5.58349 -77.68347 34884 ft 436 kts 158°
2026-04-22 22:34 5.52700 -77.66129 34891 ft 436 kts 157°
2026-04-22 22:35 5.47054 -77.63914 34890 ft 435 kts 157°
2026-04-22 22:35 5.41450 -77.61716 34890 ft 435 kts 157°
2026-04-22 22:36 5.35777 -77.59490 34889 ft 435 kts 157°
2026-04-22 22:36 5.30184 -77.57297 34894 ft 434 kts 157°
2026-04-22 22:37 5.24551 -77.55088 34893 ft 434 kts 157°
2026-04-22 22:37 5.18927 -77.52884 34892 ft 434 kts 157°
2026-04-22 22:38 5.13294 -77.50676 34894 ft 434 kts 157°
2026-04-22 22:38 5.07662 -77.48469 34894 ft 435 kts 157°
2026-04-22 22:39 5.02025 -77.46260 34895 ft 435 kts 157°
2026-04-22 22:39 4.96378 -77.44048 34894 ft 435 kts 157°
2026-04-22 22:40 4.90729 -77.41836 34891 ft 436 kts 157°
2026-04-22 22:40 4.87896 -77.40727 34695 ft 436 kts 157°
2026-04-22 22:40 4.85134 -77.39646 34386 ft 428 kts 157°
2026-04-22 22:40 4.82370 -77.38565 33975 ft 424 kts 157°
2026-04-22 22:41 4.79629 -77.37492 33538 ft 421 kts 157°
2026-04-22 22:41 4.76908 -77.36426 33095 ft 419 kts 158°
2026-04-22 22:41 4.74204 -77.35368 32659 ft 416 kts 158°
2026-04-22 22:41 4.71516 -77.34315 32238 ft 413 kts 158°
2026-04-22 22:42 4.68842 -77.33269 31827 ft 411 kts 158°
2026-04-22 22:42 4.66181 -77.32227 31413 ft 409 kts 158°
2026-04-22 22:42 4.63536 -77.31192 31002 ft 408 kts 158°
2026-04-22 22:42 4.60895 -77.30159 30580 ft 407 kts 158°
2026-04-22 22:43 4.58261 -77.29128 30160 ft 406 kts 159°
2026-04-22 22:43 4.55622 -77.28096 29711 ft 405 kts 159°
2026-04-22 22:43 4.53000 -77.27070 29265 ft 403 kts 159°
2026-04-22 22:43 4.50395 -77.26051 28825 ft 401 kts 159°
2026-04-22 22:44 4.47836 -77.25050 28400 ft 399 kts 159°
2026-04-22 22:44 4.45257 -77.24041 27968 ft 397 kts 159°
2026-04-22 22:44 4.42689 -77.23037 27551 ft 395 kts 159°
2026-04-22 22:44 4.40133 -77.22038 27142 ft 393 kts 159°
2026-04-22 22:45 4.37591 -77.21044 26726 ft 391 kts 159°
2026-04-22 22:45 4.35053 -77.20052 26314 ft 390 kts 159°
2026-04-22 22:45 4.32526 -77.19064 25882 ft 389 kts 160°
2026-04-22 22:45 4.30001 -77.18076 25454 ft 389 kts 160°
2026-04-22 22:46 4.27482 -77.17092 25036 ft 388 kts 160°
2026-04-22 22:46 4.24965 -77.16108 24616 ft 388 kts 160°
2026-04-22 22:46 4.22446 -77.15124 24197 ft 388 kts 160°
2026-04-22 22:46 4.19931 -77.14141 23783 ft 388 kts 160°
2026-04-22 22:47 4.17419 -77.13159 23345 ft 388 kts 160°
2026-04-22 22:47 4.14942 -77.12191 23058 ft 382 kts 160°
2026-04-22 22:47 4.12487 -77.11231 22819 ft 376 kts 160°
2026-04-22 22:47 4.10063 -77.10284 22467 ft 373 kts 160°
2026-04-22 22:48 4.07653 -77.09343 22085 ft 371 kts 160°
2026-04-22 22:48 4.05259 -77.08408 21744 ft 368 kts 160°
2026-04-22 22:48 4.02884 -77.07480 21405 ft 365 kts 160°
2026-04-22 22:48 4.00522 -77.06557 21063 ft 363 kts 160°
2026-04-22 22:49 3.98179 -77.05642 20726 ft 360 kts 160°
2026-04-22 22:49 3.95847 -77.04731 20392 ft 358 kts 160°
2026-04-22 22:49 3.93532 -77.03827 20066 ft 355 kts 160°
2026-04-22 22:49 3.91236 -77.02930 19737 ft 353 kts 160°
2026-04-22 22:50 3.88952 -77.02039 19419 ft 351 kts 160°
2026-04-22 22:50 3.86717 -77.01166 19104 ft 349 kts 160°
2026-04-22 22:50 3.84465 -77.00255 18786 ft 347 kts 155°
2026-04-22 22:50 3.82439 -76.98948 18462 ft 347 kts 141°
2026-04-22 22:51 3.80756 -76.97228 18155 ft 346 kts 129°
2026-04-22 22:51 3.79319 -76.95296 17773 ft 344 kts 127°
2026-04-22 22:51 3.77918 -76.93345 17361 ft 344 kts 127°
2026-04-22 22:51 3.76530 -76.91406 16966 ft 342 kts 127°
2026-04-22 22:52 3.75136 -76.89471 16599 ft 341 kts 127°
2026-04-22 22:52 3.73767 -76.87581 16222 ft 339 kts 128°
2026-04-22 22:52 3.72374 -76.85670 15847 ft 340 kts 128°
2026-04-22 22:52 3.70975 -76.83756 15466 ft 340 kts 127°
2026-04-22 22:53 3.69576 -76.81844 15088 ft 340 kts 127°
2026-04-22 22:53 3.68178 -76.79934 14767 ft 338 kts 127°
2026-04-22 22:53 3.66794 -76.78043 14487 ft 336 kts 127°
2026-04-22 22:53 3.65415 -76.76158 14180 ft 335 kts 127°
2026-04-22 22:54 3.64039 -76.74280 13860 ft 334 kts 127°
2026-04-22 22:54 3.62660 -76.72415 13520 ft 331 kts 129°
2026-04-22 22:54 3.61168 -76.70671 13174 ft 328 kts 133°
2026-04-22 22:54 3.59621 -76.69002 12823 ft 326 kts 134°
2026-04-22 22:55 3.58077 -76.67350 12469 ft 324 kts 134°
2026-04-22 22:55 3.56552 -76.65698 12134 ft 322 kts 134°
2026-04-22 22:55 3.53564 -76.62417 11621 ft 319 kts 133°
2026-04-22 22:56 3.52320 -76.61046 11417 ft 314 kts 133°
2026-04-22 22:56 3.50932 -76.59715 11203 ft 308 kts 146°
2026-04-22 22:56 3.49067 -76.58694 10977 ft 307 kts 155°
2026-04-22 22:56 3.47120 -76.57780 10761 ft 311 kts 155°
2026-04-22 22:57 3.45189 -76.56868 10813 ft 295 kts 156°
2026-04-22 22:57 3.43604 -76.56106 10726 ft 278 kts 155°
2026-04-22 22:57 3.41928 -76.55292 10594 ft 259 kts 155°
2026-04-22 22:57 3.40364 -76.54528 10483 ft 241 kts 155°
2026-04-22 22:58 3.38889 -76.53808 10197 ft 231 kts 155°
2026-04-22 22:58 3.37482 -76.53120 9893 ft 223 kts 155°
2026-04-22 22:58 3.36186 -76.52325 9532 ft 217 kts 133°
2026-04-22 22:58 3.35545 -76.51014 9236 ft 206 kts 102°
2026-04-22 22:59 3.35415 -76.49637 8915 ft 193 kts 92°
2026-04-22 22:59 3.35394 -76.48327 8573 ft 184 kts 91°
2026-04-22 22:59 3.35376 -76.47090 8287 ft 169 kts 91°
2026-04-22 22:59 3.35353 -76.45925 7836 ft 166 kts 92°
2026-04-22 23:00 3.35327 -76.44771 7377 ft 165 kts 91°
2026-04-22 23:00 3.35300 -76.43624 6930 ft 164 kts 91°
2026-04-22 23:00 3.35400 -76.42513 6619 ft 157 kts 69°
2026-04-22 23:00 3.36019 -76.41610 6464 ft 163 kts 38°
2026-04-22 23:01 3.37076 -76.41252 6269 ft 162 kts
2026-04-22 23:01 3.38187 -76.41032 6015 ft 163 kts 12°
2026-04-22 23:01 3.39277 -76.40809 5804 ft 157 kts 11°
2026-04-22 23:01 3.40319 -76.40617 5601 ft 152 kts 10°
2026-04-22 23:02 3.41359 -76.40432 5407 ft 152 kts
2026-04-22 23:02 3.42402 -76.40249 5214 ft 152 kts
2026-04-22 23:02 3.43445 -76.40067 5014 ft 152 kts
2026-04-22 23:02 3.44494 -76.39883 4840 ft 150 kts
2026-04-22 23:03 3.45499 -76.39705 4641 ft 149 kts
2026-04-22 23:03 3.46516 -76.39512 4419 ft 148 kts
2026-04-22 23:03 3.47511 -76.39315 4262 ft 144 kts
2026-04-22 23:03 3.48506 -76.39140 4156 ft 146 kts
2026-04-22 23:04 3.49510 -76.38984 4051 ft 147 kts
2026-04-22 23:04 3.50537 -76.38819 3774 ft 150 kts
2026-04-22 23:04 3.51572 -76.38671 3433 ft 148 kts 11°
2026-04-22 23:04 3.52546 -76.38470 3249 ft 140 kts
2026-04-22 23:05 3.53478 -76.38314 3165 ft 129 kts
2026-04-22 23:05 3.54178 -76.38194 3165 ft 43 kts 11°
2026-04-22 23:05 3.54426 -76.38147 3163 ft 21 kts 11°
2026-04-22 23:05 3.54564 -76.38137 3164 ft 19 kts 336°
2026-04-22 23:06 3.54596 -76.38266 3165 ft 21 kts 239°
2026-04-22 23:06 3.54466 -76.38304 3166 ft 20 kts 190°
2026-04-22 23:06 3.54333 -76.38328 3164 ft 19 kts 190°
2026-04-22 23:06 3.54204 -76.38352 3163 ft 18 kts 188°
2026-04-22 23:07 3.54137 -76.38420 3163 ft 18 kts 298°
2026-04-22 23:07 3.54203 -76.38523 3163 ft 17 kts 303°
2026-04-22 23:07 3.54206 -76.38618 3163 ft 13 kts 278°
2026-04-22 23:07 3.54212 -76.38662 3163 ft 0 kts 279°